Location: Clanezzo
(45.7500°N, 9.6000°E)
Time: 14:06:32
(UTC+00:00)

SPROUT - Pass Details

Date: 10 July 2022
Orbit: 588 x 598 km, 97.9° (Epoch: 19 August)

Event Time Altitude Azimuth Distance (km) Brightness Sun altitude
Exits shadow 00:08:40 64° 165° (SSE) 658 ? -21.3°
Maximum altitude 00:09:18 90° 87° (E) 597 ? -21.3°
Drops below altitude 10° 00:13:30 10° 347° (NNW) 1,931 ? -21.2°
Sets 00:15:41 0° 347° (NNW) 2,839 ? -21.1°
